Weather in Naryan-Mar

Russia / Nenets Autonomous Okrug     67°38′16″N   53°00′24″E
temp.,
°C
wind,
m/s
gust,
m/s
humid.,
%
clouds,
%
prec.,
mm/h
press.,
hPa
HPBL,
m
25 february, thu
thu2500:00−15s71292100 0.0 1022325
03:00−15ssw71294100 0.3 1021386
06:00−16s61291100 0.2 1019347
09:00−16s61189100 0.3 1018334
12:00−16s71287100 0.0 1017367
15:00−15s61287100 0.0 1017370
18:00−16s7128998 0.0 1015325
21:00−19s6129186 0.0 1015265
26 february, fri
fri2600:00−20s6119342 0.0 1014244
03:00−21s6139367 0.0 1014266
06:00−22s6129435 0.0 1012259
09:00−21s6129351 0.0 1012326
12:00−19s7129271 0.0 1011414
15:00−18s6149283 0.0 1011441
18:00−19sse5129495 0.0 1010322
21:00−20sse5129595 0.0 1010267
27 february, sat
sat2700:00−20sse5109689 0.0 1010202
03:00−21sse599691 0.0 1011184
06:00−22sse499557 0.0 1011151
09:00−22s5109465 0.0 1012227
12:00−20s489338 0.0 1012284
15:00−20sse479427 0.0 1012136
18:00−22s45967 0.0 101169
21:00−21s469740 0.0 1011112
28 february, sun
sun2800:00−20s479794 0.0 1011154
03:00−19s489697 0.1 1010236
06:00−18ssw5897100 0.4 1010275
09:00−17ssw6994100 0.8 1009315
12:00−16ssw589395 0.1 1010340
15:00−15ssw589597 0.4 1010303
18:00−15ssw5895100 0.4 1010236
21:00−15s479696 0.6 1010155
1 march, mon
mon100:00−16s359688 0.1 101096
03:00−15s359689 0.2 1010125
06:00−17s459793 0.1 100975
09:00−16s589696 0.1 1008163
12:00−13s6119496 0.0 1006280
15:00−11s8149398 0.1 1002386
18:00−10s91594100 0.6 998470
21:00−8s91594100 2.0 996478